sat.trackr.live / text

‹ back to catalog

STARLINK-5635

NORAD 55367 · 2023-013AN

PAYLOAD ACTIVE UNKNOWN

§ Identity

Operator
Country
US
Launch date
2023-01-26
Launch site
AFETR
Launch vehicle
Mass (kg)
RCS (m²)

Purposes: comms

External: N2YO · Heavens-Above · Gunter

§ Orbital elements

Epoch: 2026-09-20T02:28:51.697632Z

Period
94.27 min
Inclination
42.9996°
Eccentricity
0.0001392
Mean motion
15.27576034 rev/d
Perigee alt
482.1 km
Apogee alt
484.0 km
Semi-major
6,861.2 km
B*
9.7976e-6
RAAN
270.9775°
Arg perigee
262.6665°
Mean anomaly
97.4028°
Rev number
20,157

§ Raw data

STARLINK-56351 55367U 23013AN  26263.10337613  .00000007  00000+0  97976-5 0  99972 55367  42.9996 270.9775 0001392 262.6665  97.4028 15.27576034201577

JSON: /api/v1/satellites/55367 · /tle

For live sub-satellite position, see the globe view (requires WebGL).

§ Visibility from observer

Set your observer location to see the next 7 days of passes ≥ 10°. The values pass through the URL so the page stays shareable.

No JS? Fill the form by hand. The geolocation button needs JavaScript.